Regional Weather Roundup
Issued by NWS

Home | Current Version | Previous Version | Text Only | Print | Product List | Glossary On
Versions: 1 2 3 4 5 6 7 8 9 10 11 12 13 14 15 16 17 18 19 20 21 22 23 24 25 26 27 28 29 30 31 32 33 34 35 36 37 38 39 40 41 42 43 44 45 46 47 48 49 50
000
ASUS43 KLSX 051607
RWRMO

WEATHER SUMMARY FOR MISSOURI
NATIONAL WEATHER SERVICE SPRINGFIELD MO
1100 AM CDT SUN JUL 05 2015

NOTE: "FAIR" INDICATES FEW OR NO CLOUDS BELOW 12,000 FEET WITH NO
       SIGNIFICANT WEATHER AND/OR OBSTRUCTIONS TO VISIBILITY.
       CURRENT SKY AND/OR WEATHER CONDITIONS ARE NOT AVAILABLE FOR
       CHILLICOTHE AND FARMINGTON.

MOZ001>031-035>038-043-044-053-054-051700-
...NORTHERN AND WESTERN MISSOURI...

CITY           SKY/WX    TMP DP  RH WIND       PRES   REMARKS
KANSAS CTY INT CLOUDY    80  72  76 S9        29.98F
KANSAS C DTWN  CLOUDY    84  71  65 S14       29.97F
LEE`S SUMMIT   MOSUNNY   82  71  69 S8        30.00F
ST JOSEPH      CLOUDY    80  71  74 S7        29.97F
CHILLICOTHE      N/A     82  72  71 SE6       30.01F
KIRKSVILLE     MOSUNNY   80  70  71 S8        30.04S

$$
MOZ066>068-077>081-088>096-101>105-051700-
...SOUTHWEST MISSOURI...

CITY           SKY/WX    TMP DP  RH WIND       PRES   REMARKS
SPRINGFIELD    PTSUNNY   78  71  79 S9        30.06R
JOPLIN         SUNNY     85  74  69 S12       30.02F HX  92

$$
MOZ032>034-039>042-045>050-055>058-069>072-051700-
...CENTRAL MISSOURI...

CITY           SKY/WX    TMP DP  RH WIND       PRES   REMARKS
COLUMBIA       SUNNY     79  71  76 S5        30.06R
JEFFERSON CITY MOSUNNY   77  70  79 S6        30.05S
ROLLA          SUNNY     78  70  76 SE8       30.05F
SEDALIA        MOSUNNY   83  72  69 S8        30.03F
WHITEMAN AFB   MOSUNNY   82  74  75 S8        30.00F
WARRENSBURG    MOSUNNY   82  72  69 S6        30.00S
OSAGE BEACH    PTSUNNY   79  70  73 S8        30.06R

$$
MOZ051-052-059>065-051700-
...EAST CENTRAL MISSOURI...

CITY           SKY/WX    TMP DP  RH WIND       PRES   REMARKS
ST LOUIS INTL  MOSUNNY   83  66  56 VRB7      30.07F
SPIRIT OF STL  MOSUNNY   81  68  64 S6        30.05F
ST CHARLES     MOSUNNY   80  70  71 S7        30.06S HAZE

$$
MOZ072>076-082>087-097>100-106>115-051700-
...SOUTH CENTRAL AND SOUTHEAST MISSOURI...

CITY           SKY/WX    TMP DP  RH WIND       PRES   REMARKS
CAPE GIRARDEAU SUNNY     80  69  69 E5        30.07S HAZE
FARMINGTON     SUNNY     73  68  83 S7        30.12S
POPLAR BLUFF   PTSUNNY   77  71  82 E6        30.06S
WEST PLAINS    CLOUDY    76  69  79 S6        30.09F

$$


USA.gov is the U.S. government's official web portal to all federal, state and local government web resources and services.